Date,TemperatureHighF,TemperatureAvgF,TemperatureLowF,DewpointHighF,DewpointAvgF,DewpointLowF,HumidityHigh,HumidityAvg,HumidityLow,PressureMaxIn,PressureMinIn,WindSpeedMaxMPH,WindSpeedAvgMPH,GustSpeedMaxMPH,PrecipitationSumIn
2014-1-1,29.8,23.9,16.5,21.0,9.6,-1.0,84,56,37,30.28,29.85,24,2,27,0.00
2014-1-2,41.5,29.2,18.4,13.0,4.2,-7.0,57,36,23,30.35,30.06,5,1,19,0.00
2014-1-3,41.8,32.5,24.0,15.0,10.0,6.0,56,40,26,30.05,29.60,13,2,19,0.00
2014-1-4,31.6,18.5,1.8,20.0,9.2,-6.0,83,68,45,29.98,29.48,10,1,18,0.00
2014-1-5,11.6,3.7,-0.5,-2.0,-7.3,-12.0,69,61,50,30.54,29.97,5,1,18,0.00
2014-1-6,30.3,16.7,2.3,12.0,-0.7,-15.0,63,47,38,30.61,30.42,9,1,27,0.04
2014-1-7,37.6,27.1,16.3,14.0,8.8,3.0,68,47,29,30.41,29.94,4,0,16,0.01
2014-1-8,32.5,24.7,17.5,15.0,12.9,11.0,76,62,45,30.04,29.92,7,0,11,0.00
2014-1-9,32.1,22.9,16.9,16.0,11.7,8.0,81,64,39,29.98,29.68,5,0,16,0.00
2014-1-10,24.4,18.1,9.1,16.0,6.6,-2.0,85,61,48,30.08,29.68,18,3,26,0.03
2014-1-11,42.4,32.9,23.9,20.0,15.1,8.0,59,49,37,30.18,29.67,10,2,26,0.02
2014-1-12,32.7,23.0,12.1,22.0,10.5,-2.0,84,59,48,29.98,29.48,14,2,22,0.00
2014-1-13,33.0,22.3,12.6,11.0,5.7,-2.0,62,50,34,30.25,29.99,18,3,41,0.01
2014-1-14,27.7,23.2,18.6,11.0,8.6,6.0,67,54,45,30.40,30.15,17,3,29,0.00
2014-1-15,38.7,29.9,22.2,15.0,10.5,7.0,58,45,34,30.37,30.10,15,4,27,0.00
2014-1-16,38.2,26.4,18.3,8.0,4.4,0.0,55,40,24,30.25,30.10,13,2,20,0.00
2014-1-17,38.7,28.7,20.2,16.0,8.5,3.0,52,43,33,30.24,30.07,13,3,30,0.00
2014-1-18,38.7,28.6,16.6,12.0,7.2,2.0,57,41,29,30.25,30.09,5,0,11,0.00
2014-1-19,43.7,32.4,21.0,14.0,6.0,-2.0,45,33,27,30.23,30.05,7,1,15,0.00
2014-1-20,39.3,29.5,19.8,14.0,3.0,-8.0,42,32,25,30.37,30.01,7,1,15,0.00
2014-1-21,44.6,32.5,21.3,-1.0,-9.6,-16.0,24,16,9,30.38,30.09,9,1,16,0.00
2014-1-22,36.3,25.4,12.9,8.0,-7.6,-22.0,76,29,12,30.09,29.84,11,0,11,0.00
2014-1-23,21.6,13.7,7.8,10.0,5.7,0.0,83,72,45,30.62,30.07,3,0,9,0.00
2014-1-24,41.8,28.1,11.6,11.0,-1.7,-15.0,54,29,13,30.61,30.34,7,1,10,0.00
2014-1-25,48.7,34.4,25.0,20.0,13.4,4.0,52,43,31,30.34,29.91,10,1,21,0.00
2014-1-26,41.8,30.8,19.9,15.0,11.3,7.0,59,45,31,29.91,29.74,12,2,17,0.00
2014-1-27,37.5,23.6,6.0,17.0,10.6,1.0,86,60,36,29.91,29.66,7,2,24,0.00
2014-1-28,24.8,14.1,4.1,6.0,-4.8,-12.0,83,46,22,30.31,29.90,8,1,13,0.01
2014-1-29,39.2,30.1,17.8,24.0,9.6,-8.0,76,44,28,30.27,29.57,12,2,22,0.01
2014-1-30,33.3,29.3,25.3,30.0,26.0,21.0,92,87,79,29.57,29.40,17,2,19,0.12
2014-1-31,29.5,22.8,13.3,27.0,19.4,10.0,91,86,80,29.65,29.42,6,0,10,0.00
2014-2-1,20.2,11.6,3.6,13.0,6.6,-1.0,88,80,67,30.16,29.65,3,0,7,0.00
2014-2-2,25.6,10.6,-3.4,11.0,0.6,-10.0,82,66,39,30.30,30.12,3,0,12,0.01
2014-2-3,29.3,17.7,7.0,14.0,7.9,0.0,83,66,49,30.11,29.84,6,0,11,0.02
2014-2-4,17.4,8.7,-2.4,9.0,3.3,-8.0,85,78,63,30.20,29.82,2,0,8,0.00
2014-2-5,20.3,5.5,-9.8,3.0,-4.9,-15.0,82,64,43,30.40,30.20,3,0,10,0.01
2014-2-6,25.7,15.2,5.3,9.0,3.6,-3.0,77,61,44,30.26,29.94,6,1,16,0.00
2014-2-7,30.6,21.3,15.4,13.0,10.0,8.0,77,63,43,29.96,29.83,12,1,17,0.02
2014-2-8,35.9,27.3,19.0,22.0,16.5,9.0,80,64,46,30.02,29.87,11,2,19,0.05
2014-2-9,40.3,31.6,24.3,28.0,23.5,20.0,90,74,48,29.95,29.76,8,2,18,0.03
2014-2-10,35.0,24.9,14.9,24.0,18.8,12.0,89,78,61,30.07,29.81,5,0,10,0.06
2014-2-11,35.2,20.6,5.2,12.0,6.2,1.0,87,58,30,30.22,30.02,7,0,20,0.02
2014-2-12,39.5,27.5,16.6,20.0,10.9,1.0,70,51,32,30.22,29.92,14,1,20,0.00
2014-2-13,45.5,33.4,26.3,24.0,21.3,18.0,78,62,42,30.01,29.77,10,1,19,0.00
2014-2-14,46.0,34.0,27.1,25.0,20.5,13.0,72,59,40,29.94,29.80,19,2,20,0.00
2014-2-15,42.8,38.5,34.1,25.0,22.2,19.0,65,53,41,29.92,29.84,16,2,22,0.00
2014-2-16,43.1,36.2,28.0,27.0,18.3,10.0,82,49,34,29.90,29.66,10,2,25,0.00
2014-2-17,44.0,31.0,14.7,8.0,1.1,-4.0,47,29,18,30.16,29.91,9,1,24,0.00
2014-2-18,45.5,36.6,30.6,10.0,5.5,0.0,38,28,20,29.90,29.81,12,1,18,0.00
2014-2-19,36.9,31.3,28.7,13.0,6.8,3.0,42,36,28,29.83,29.59,5,1,13,0.00
2014-2-21,26.0,25.2,24.0,6.0,4.7,3.0,43,42,40,29.99,29.93,7,1,15,0.00
2014-2-22,34.1,27.0,21.9,13.0,7.3,2.0,56,44,33,29.93,29.80,10,2,21,0.00
2014-2-23,42.5,31.9,20.0,12.0,8.3,6.0,54,38,26,30.02,29.89,9,1,17,0.00
2014-2-24,45.2,33.8,26.5,17.0,10.3,3.0,49,38,25,29.97,29.86,10,1,23,0.00
2014-2-25,45.7,35.5,20.6,19.0,13.3,8.0,70,41,30,29.93,29.75,10,2,17,0.00
2014-2-26,40.6,29.2,11.0,19.0,11.0,3.0,90,51,26,29.94,29.80,8,1,16,0.00
2014-2-27,42.8,32.5,26.6,27.0,19.3,13.0,85,60,42,29.89,29.48,6,1,17,0.00
2014-2-28,40.8,31.9,25.0,23.0,17.3,12.0,74,57,32,29.74,29.51,8,1,18,0.04
2014-3-1,35.9,31.5,26.4,30.0,23.6,18.0,88,73,51,29.73,29.52,11,2,22,0.06
2014-3-2,36.4,28.0,19.7,21.0,17.3,12.0,87,66,40,30.06,29.72,5,1,11,0.00
2014-3-3,43.8,31.5,24.3,19.0,14.8,12.0,65,51,35,30.05,29.94,9,1,15,0.00
2014-3-4,45.6,33.0,24.4,25.0,15.1,8.0,87,50,25,29.94,29.73,9,1,14,0.00
2014-3-5,39.9,29.6,18.2,23.0,11.1,5.0,87,49,29,30.14,29.87,8,1,17,0.02
2014-3-6,48.9,37.4,27.2,16.0,10.0,2.0,49,33,22,30.12,29.71,7,1,15,0.00
2014-3-7,37.4,28.4,20.5,28.0,21.3,17.0,90,76,53,30.04,29.60,7,1,20,0.00
2014-3-8,31.9,22.6,11.9,21.0,15.3,8.0,90,74,54,30.46,30.05,7,0,9,0.47
2014-3-9,51.9,32.6,13.0,21.0,7.9,-4.0,81,43,15,30.48,30.18,7,1,13,0.10
2014-3-10,53.6,42.3,33.3,13.0,-0.3,-7.0,22,17,12,30.18,29.47,8,2,23,0.00
2014-3-11,38.2,26.9,11.6,19.0,11.1,3.0,84,56,23,30.20,29.42,10,2,23,0.00
2014-3-12,36.2,16.4,3.7,13.0,5.6,-1.0,87,68,22,30.53,30.20,7,0,9,0.04
2014-3-14,34.8,31.6,28.9,13.0,8.5,5.0,46,38,30,29.92,29.90,3,0,7,0.00
2014-3-15,32.5,25.9,16.5,15.0,9.9,2.0,69,52,30,30.30,29.83,18,3,22,0.00
2014-3-16,43.4,29.4,15.1,20.0,9.5,4.0,65,45,28,30.41,30.08,5,1,13,0.00
2014-3-17,47.9,36.2,27.9,23.0,10.8,0.0,78,37,20,30.07,29.24,15,2,23,0.00
2014-3-18,29.5,21.1,14.3,15.0,5.9,-1.0,83,54,33,30.09,29.30,13,2,20,0.00
2014-3-19,39.8,25.1,10.5,11.0,7.1,0.0,85,52,22,30.26,30.09,7,1,13,0.00
2014-3-20,47.7,34.7,25.0,1.0,-4.1,-9.0,30,20,11,30.14,29.83,13,1,22,0.00
2014-3-21,43.3,32.7,22.1,20.0,8.8,-1.0,82,40,23,29.93,29.78,14,1,19,0.00
2014-3-22,40.5,26.2,17.0,24.0,16.4,12.0,87,68,41,30.20,29.86,9,1,27,0.00
2014-3-23,41.6,27.9,13.0,17.0,9.6,2.0,87,52,20,30.20,30.06,9,1,18,0.01
2014-3-24,42.1,32.3,21.3,9.0,4.8,1.0,43,32,20,30.10,30.02,15,2,21,0.00
2014-3-25,52.5,39.3,28.5,13.0,8.1,5.0,41,29,16,30.07,29.64,9,1,21,0.00
2014-3-26,47.6,35.8,27.6,27.0,18.0,8.0,84,51,30,29.63,29.24,8,1,19,0.00
2014-3-27,36.9,29.2,24.7,24.0,18.6,13.0,84,66,41,29.80,29.26,13,1,18,0.03
2014-3-28,36.0,27.9,19.3,19.0,10.1,4.0,85,50,28,30.23,29.79,17,2,20,0.01
2014-3-29,48.5,34.2,19.4,14.0,8.7,4.0,53,36,19,30.23,29.94,9,1,21,0.00
2014-3-30,46.7,37.7,27.5,26.0,14.6,10.0,83,41,26,29.94,29.35,12,2,33,0.00
2014-3-31,40.1,30.7,21.5,15.0,8.1,1.0,67,42,20,29.89,29.48,12,2,19,0.00
2014-4-1,41.3,31.7,22.7,19.0,15.6,8.0,75,53,31,29.83,29.60,9,1,20,0.00
2014-4-2,42.3,33.6,25.7,18.0,12.8,4.0,67,44,28,29.59,29.45,14,2,25,0.00
2014-4-3,29.6,24.1,16.4,21.0,17.8,9.0,88,77,60,30.11,29.51,6,0,9,0.19
2014-4-4,37.2,25.6,12.9,18.0,11.6,7.0,77,57,33,30.18,29.99,6,0,15,0.04
2014-4-5,39.8,27.9,21.0,25.0,18.6,12.0,89,69,40,29.98,29.80,8,0,15,0.00
2014-4-6,35.8,27.5,18.3,22.0,17.4,13.0,90,68,40,29.97,29.87,11,1,20,0.05
2014-4-7,37.9,29.3,19.3,20.0,15.3,10.0,87,59,33,30.23,29.97,12,3,22,0.00
2014-4-8,52.1,40.7,30.9,22.0,18.3,15.0,62,42,26,30.23,30.06,12,2,21,0.00
2014-4-9,57.2,45.5,32.8,20.0,15.7,12.0,52,32,19,30.06,29.76,8,1,20,0.00
2014-4-10,57.1,46.0,36.4,20.0,15.0,11.0,45,30,17,29.81,29.67,19,2,25,0.00
2014-4-11,60.4,46.5,33.4,23.0,15.2,10.0,51,31,14,29.84,29.67,8,1,18,0.00
2014-4-12,55.6,45.6,37.3,25.0,16.5,8.0,62,33,21,29.66,29.39,11,1,18,0.00
2014-4-13,39.4,26.8,9.0,31.0,21.4,5.0,90,81,52,29.96,29.38,10,1,21,0.01
2014-4-14,29.8,17.8,4.8,16.0,7.7,1.0,84,66,41,30.39,29.97,7,0,11,0.02
2014-4-15,48.5,35.2,21.4,17.0,10.1,4.0,53,37,20,30.35,29.68,19,2,23,0.02
2014-4-16,47.2,36.5,25.4,28.0,17.7,9.0,90,51,26,29.87,29.58,9,3,21,0.00
2014-4-17,49.4,34.9,20.6,30.0,21.3,16.0,90,63,27,30.07,29.88,9,0,14,0.26
2014-4-18,60.0,47.7,35.3,26.0,22.4,18.0,56,38,20,30.01,29.68,8,1,16,0.00
2014-4-19,53.1,42.9,36.8,38.0,30.4,22.0,90,63,39,29.87,29.68,17,2,24,0.02
2014-4-20,53.2,42.1,34.4,37.0,32.6,28.0,93,72,40,29.99,29.84,11,1,13,0.04
2014-4-21,58.3,43.5,32.0,34.0,29.5,24.0,79,61,28,30.06,29.91,9,1,21,0.00
2014-4-22,59.6,45.0,31.9,41.0,31.7,28.0,88,62,32,29.97,29.48,10,1,21,0.09
2014-4-23,54.0,43.7,29.6,28.0,20.8,14.0,57,42,22,29.60,29.35,14,3,27,0.00
2014-4-24,54.5,39.5,24.7,16.0,9.9,2.0,54,32,18,29.84,29.61,12,1,20,0.00
2014-4-25,60.1,47.5,33.0,16.0,12.5,9.0,44,26,15,29.82,29.42,12,2,22,0.00
2014-4-26,54.1,44.4,31.6,30.0,19.8,13.0,87,41,24,29.41,29.07,15,4,30,0.01
2014-4-27,42.4,34.1,27.1,23.0,16.5,12.0,71,50,34,29.54,29.05,24,5,32,0.00
2014-4-28,35.6,26.5,20.2,22.0,12.2,6.0,84,57,32,30.00,29.53,13,3,29,0.00
2014-4-29,37.4,28.3,19.2,13.0,9.6,7.0,63,47,31,30.22,30.00,18,4,23,0.02
2014-4-30,40.4,30.5,21.6,13.0,9.9,6.0,62,44,26,30.25,30.14,11,2,21,0.00
2014-5-1,44.0,32.7,19.2,13.0,9.0,-1.0,65,40,20,30.24,30.12,16,3,29,0.00
2014-5-2,57.4,45.5,32.1,22.0,17.9,12.0,48,34,22,30.12,29.85,11,2,17,0.00
2014-5-3,64.7,52.3,39.7,23.0,15.9,3.0,47,27,9,29.84,29.69,8,2,21,0.00
2014-5-4,66.3,54.8,46.4,16.0,12.5,6.0,29,19,10,29.70,29.55,10,2,21,0.00
2014-5-5,64.7,53.9,46.2,15.0,10.0,7.0,24,18,11,29.63,29.45,11,1,17,0.00
2014-5-6,61.9,51.3,42.0,16.0,10.0,6.0,26,19,12,29.46,29.23,13,1,21,0.00
2014-5-7,56.6,44.7,34.4,18.0,11.3,3.0,51,27,13,29.43,29.27,13,2,27,0.00
2014-5-8,44.6,35.6,28.9,27.0,17.9,12.0,71,49,29,29.84,29.44,7,1,14,0.00
2014-5-9,50.5,38.6,28.7,30.0,22.0,17.0,86,53,33,29.85,29.72,11,1,20,0.06
2014-5-10,55.1,42.8,30.3,31.0,27.6,22.0,91,59,28,29.77,29.46,10,1,16,0.02
2014-5-11,40.6,31.5,22.1,32.0,26.0,19.0,89,80,58,29.86,29.32,15,2,26,0.00
2014-5-12,27.9,22.7,18.5,21.0,18.1,15.0,89,83,72,30.39,29.87,7,1,13,0.22
2014-5-13,34.4,25.3,16.2,21.0,16.5,13.0,88,71,43,30.54,30.39,5,0,11,0.16
2014-5-14,42.7,32.1,18.5,20.0,16.4,11.0,78,55,32,30.53,30.29,11,2,19,0.00
2014-5-15,51.3,39.4,28.7,30.0,23.4,17.0,70,54,37,30.29,30.06,12,2,20,0.00
2014-5-16,56.8,47.7,37.6,33.0,25.6,18.0,72,44,23,30.05,29.79,10,3,23,0.00
2014-5-17,62.9,49.4,35.8,35.0,27.0,17.0,90,49,19,29.80,29.68,10,2,24,0.00
2014-5-18,67.8,51.7,34.1,33.0,22.8,12.0,76,39,15,29.72,29.50,12,1,18,0.00
2014-5-19,67.3,55.9,42.9,19.0,13.3,8.0,30,19,10,29.53,29.44,9,2,20,0.00
2014-5-20,67.2,53.1,34.3,29.0,14.2,8.0,65,24,11,29.65,29.52,12,1,25,0.00
2014-5-21,62.7,50.2,35.2,40.0,26.2,10.0,78,43,19,29.81,29.64,19,3,25,0.00
2014-5-22,64.8,47.4,39.1,41.0,36.8,28.0,91,72,26,29.95,29.80,12,1,23,0.10
2014-5-23,61.5,48.2,39.2,42.0,36.9,28.0,92,69,30,29.93,29.73,9,2,23,0.00
2014-5-24,61.5,46.1,37.3,39.0,33.9,25.0,92,67,25,29.79,29.61,16,1,35,0.30
2014-5-25,46.2,40.0,36.7,39.0,36.5,33.0,94,87,66,29.93,29.67,5,0,12,0.19
2014-5-26,61.0,46.5,32.7,39.0,32.3,26.0,91,63,26,30.02,29.86,9,1,15,0.00
2014-5-27,69.2,54.9,37.9,38.0,31.9,24.0,87,48,18,29.92,29.84,9,1,18,0.00
2014-5-28,73.0,56.1,40.1,40.0,31.0,10.0,74,46,9,29.87,29.71,8,1,16,0.00
2014-5-29,73.1,54.0,40.6,44.0,37.7,31.0,90,60,22,29.81,29.65,8,1,41,0.04
2014-5-30,56.9,49.7,45.9,48.0,43.6,40.0,92,80,60,29.84,29.72,7,0,17,0.31
2014-5-31,67.4,54.1,37.7,44.0,37.4,30.0,93,58,29,29.89,29.65,8,1,16,0.00
2014-6-1,67.6,56.5,42.4,40.0,25.6,14.0,80,37,13,29.70,29.56,17,2,22,0.00
2014-6-2,72.5,56.5,39.5,42.0,28.9,9.0,86,42,9,29.75,29.64,6,1,15,0.00
2014-6-3,73.5,60.6,44.9,36.0,24.0,12.0,69,30,11,29.67,29.49,17,2,26,0.00
2014-6-4,74.1,59.1,40.2,37.0,18.8,7.0,45,23,10,29.63,29.43,13,2,25,0.00
2014-6-5,72.8,56.7,39.9,44.0,28.8,7.0,80,41,8,29.64,29.52,22,2,22,0.00
2014-6-6,72.2,57.0,43.2,44.0,33.1,15.0,90,50,12,29.64,29.50,10,1,25,0.00
2014-6-7,71.0,53.2,40.4,42.0,34.5,17.0,81,55,14,29.72,29.56,9,1,19,0.00
2014-6-8,62.7,46.8,37.7,44.0,36.6,28.0,91,70,38,29.79,29.52,19,2,25,0.18
2014-6-9,64.7,48.8,30.3,30.0,21.1,12.0,81,41,15,29.92,29.79,10,2,19,0.00
2014-6-10,71.4,55.6,38.4,30.0,25.7,22.0,57,34,17,29.83,29.62,10,2,21,0.00
2014-6-11,69.7,55.7,42.8,40.0,31.0,27.0,66,41,22,29.72,29.52,14,2,29,0.00
2014-6-12,70.4,53.3,38.6,41.0,34.7,20.0,89,56,16,29.80,29.67,9,1,15,0.00
2014-6-13,73.5,58.4,38.5,42.0,29.7,19.0,90,43,14,29.74,29.42,10,1,23,0.00
2014-6-14,68.8,56.0,43.3,31.0,19.7,11.0,54,26,12,29.50,29.21,15,2,23,0.00
2014-6-15,65.1,53.2,37.2,27.0,16.8,11.0,41,25,14,29.64,29.50,12,1,20,0.00
2014-6-16,69.7,59.2,47.5,18.0,13.7,9.0,23,17,12,29.56,29.39,19,2,27,0.00
2014-6-17,71.5,60.3,48.8,25.0,18.7,9.0,28,20,15,29.46,29.37,17,3,24,0.00
2014-6-18,66.9,55.4,43.2,32.0,26.1,23.0,57,34,20,29.61,29.40,10,2,22,0.00
2014-6-19,69.6,54.8,36.0,29.0,20.3,4.0,67,32,8,29.86,29.61,9,2,18,0.00
2014-6-20,75.7,60.0,39.6,35.0,20.3,11.0,49,25,9,29.85,29.64,8,1,15,0.00
2014-6-21,73.3,58.6,46.2,32.0,27.4,21.0,50,33,14,29.66,29.55,4,0,18,0.00
2014-6-22,68.8,54.4,41.6,40.0,30.7,24.0,65,43,20,29.75,29.62,12,2,17,0.01
2014-6-23,71.0,54.7,40.6,41.0,34.6,26.0,85,52,20,29.81,29.73,10,1,19,0.00
2014-6-24,72.8,56.4,37.6,43.0,33.1,23.0,85,48,16,29.82,29.69,9,1,16,0.00
2014-6-25,75.1,59.0,42.0,45.0,35.7,24.0,87,49,16,29.76,29.55,9,1,19,0.00
2014-6-26,77.3,61.9,43.7,36.0,27.0,14.0,66,31,12,29.63,29.35,23,1,25,0.01
2014-6-27,68.8,59.8,49.5,30.0,25.2,17.0,46,28,17,29.42,29.29,14,2,21,0.00
2014-6-28,71.9,58.2,41.8,34.0,25.8,15.0,69,34,14,29.70,29.42,9,1,20,0.00
2014-6-29,78.7,65.7,49.8,29.0,24.7,20.0,34,22,14,29.68,29.54,8,1,22,0.00
2014-6-30,82.6,68.2,52.7,43.0,28.5,23.0,60,25,12,29.55,29.43,9,2,21,0.00
2014-7-1,75.7,56.9,48.1,45.0,42.4,28.0,83,61,17,29.82,29.52,14,3,21,0.00
2014-7-2,74.0,56.5,46.4,49.0,43.6,37.0,86,64,27,29.84,29.69,10,2,17,0.00
2014-7-3,75.7,58.5,42.2,46.0,39.8,30.0,92,57,20,29.90,29.76,8,1,22,0.02
2014-7-4,75.5,57.5,44.1,47.0,41.3,35.0,88,61,24,29.91,29.77,8,1,16,0.09
2014-7-5,76.0,60.5,44.4,47.0,39.2,30.0,89,51,19,29.90,29.83,9,1,16,0.00
2014-7-6,79.0,63.1,44.5,41.0,36.0,29.0,75,41,17,29.85,29.73,8,2,18,0.00
2014-7-7,79.9,62.4,48.5,46.0,37.9,32.0,67,43,18,29.76,29.61,6,1,14,0.01
2014-7-8,79.5,58.9,46.5,53.0,44.2,38.0,89,62,25,29.81,29.69,10,2,19,0.08
2014-7-9,75.0,61.1,45.0,47.0,39.7,32.0,87,50,23,29.79,29.64,9,1,16,0.00
2014-7-10,78.7,63.3,48.8,44.0,39.8,34.0,75,46,22,29.70,29.56,9,1,15,0.00
2014-7-11,79.8,61.9,50.4,50.0,44.3,40.0,79,55,26,29.75,29.60,15,2,23,0.00
2014-7-12,76.3,58.5,49.1,53.0,47.7,43.0,93,71,33,29.93,29.74,8,1,22,0.19
2014-7-13,73.5,58.5,47.7,54.0,49.0,42.0,95,74,34,29.94,29.82,8,1,17,0.24
2014-7-14,75.2,58.5,51.7,55.0,49.4,41.0,95,76,30,29.89,29.79,7,1,18,0.04
2014-7-15,72.5,58.1,49.2,51.0,46.4,39.0,93,69,33,29.87,29.68,8,1,20,0.01
2014-7-16,74.2,57.7,47.4,48.0,42.1,32.0,92,61,23,29.72,29.55,8,1,20,0.09
2014-7-17,68.0,53.0,42.8,52.0,45.3,41.0,94,79,40,29.79,29.63,8,1,14,0.27
2014-7-18,71.9,57.7,44.2,54.0,43.1,35.0,95,64,27,29.79,29.71,10,1,18,0.01
2014-7-19,74.8,60.3,46.0,49.0,41.1,37.0,79,52,26,29.76,29.67,13,1,19,0.09
2014-7-20,80.5,60.7,46.1,44.0,40.4,36.0,77,52,21,29.77,29.65,11,1,19,0.02
2014-7-21,77.7,62.3,47.9,45.0,38.4,33.0,79,46,20,29.84,29.76,6,0,11,0.00
2014-7-22,82.0,64.9,48.6,45.0,35.1,17.0,75,39,9,29.93,29.79,10,2,22,0.04
2014-7-23,79.5,62.0,49.2,49.0,42.9,34.0,79,54,21,29.91,29.83,12,2,18,0.01
2014-7-24,80.3,64.4,50.7,50.0,44.2,39.0,77,51,24,29.88,29.63,7,1,15,0.01
2014-7-25,75.7,62.6,51.9,52.0,45.0,42.0,85,55,31,29.72,29.61,9,0,27,0.15
2014-7-26,77.2,58.3,46.4,52.0,46.3,42.0,91,68,29,29.93,29.71,9,1,22,0.10
2014-7-27,73.6,55.0,45.1,54.0,47.7,43.0,94,79,41,30.03,29.89,13,0,15,0.41
2014-7-28,71.3,54.9,48.2,54.0,49.1,45.0,95,83,42,30.04,29.91,8,0,16,0.08
2014-7-29,63.3,55.0,48.5,53.0,48.7,46.0,94,80,58,29.96,29.79,5,1,10,0.05
2014-7-30,60.8,51.9,47.2,51.0,48.7,46.0,95,89,63,29.97,29.79,6,1,15,0.41
2014-7-31,58.5,50.8,47.3,51.0,48.2,46.0,95,91,73,29.97,29.91,7,0,9,0.20
2014-8-1,55.1,49.6,45.5,50.0,47.2,44.0,95,91,76,30.02,29.93,6,0,12,0.29
2014-8-2,67.5,53.5,39.6,48.0,42.4,28.0,96,71,23,30.09,29.93,13,1,17,0.00
2014-8-3,72.6,58.1,45.9,51.0,44.8,34.0,94,66,24,29.96,29.76,10,1,15,0.13
2014-8-4,72.2,57.9,49.0,50.0,46.9,41.0,92,70,36,29.82,29.70,10,1,14,0.09
2014-8-5,71.4,58.4,47.9,49.0,44.6,35.0,92,64,31,29.81,29.72,5,1,14,0.01
2014-8-6,70.3,58.2,43.8,47.0,42.3,37.0,89,60,32,29.81,29.74,7,1,13,0.00
2014-8-7,73.9,59.7,48.7,49.0,40.9,30.0,81,54,20,29.79,29.60,6,0,14,0.00
2014-8-8,72.1,58.8,45.1,48.0,37.9,25.0,87,53,18,29.74,29.67,6,1,14,0.00
2014-8-9,73.7,57.0,42.6,45.0,35.9,31.0,74,49,21,29.90,29.74,6,1,18,0.01
2014-8-10,68.6,52.2,42.5,48.0,41.2,35.0,92,69,35,30.09,29.90,8,1,14,0.06
2014-8-11,70.6,60.3,44.5,48.0,43.2,35.0,93,57,29,30.09,30.01,7,1,11,0.01
2014-8-12,73.9,57.3,43.6,49.0,43.1,36.0,93,65,25,30.04,29.84,8,1,14,0.02
2014-8-13,75.0,59.5,47.4,50.0,45.0,40.0,88,63,30,29.90,29.71,7,1,12,0.00
2014-8-14,74.2,58.3,50.1,54.0,47.9,45.0,91,71,37,29.73,29.62,9,1,13,0.12
2014-8-15,55.2,50.6,46.4,46.0,44.0,42.0,85,78,70,29.83,29.73,2,0,6,0.20
2014-8-16,73.2,58.8,44.7,46.0,40.5,36.0,86,55,27,29.89,29.80,8,0,12,0.00
2014-8-17,74.5,58.9,45.4,44.0,38.2,33.0,76,49,23,29.85,29.74,6,1,12,0.00
2014-8-18,76.2,58.2,42.4,42.0,37.4,30.0,80,50,19,29.79,29.69,7,1,17,0.00
2014-8-19,72.9,58.0,47.8,45.0,40.2,36.0,71,54,29,29.70,29.52,6,1,22,0.00
2014-8-20,72.9,60.6,48.5,46.0,41.0,37.0,76,51,29,29.60,29.51,7,1,17,0.00
2014-8-21,72.4,59.3,48.7,42.0,37.3,33.0,63,46,25,29.72,29.61,6,0,11,0.00
2014-8-22,58.2,51.6,44.9,47.0,43.0,40.0,88,73,61,29.73,29.64,7,0,12,0.00
2014-8-23,65.0,52.6,43.6,43.0,39.3,35.0,86,63,39,29.74,29.66,13,1,27,0.00
2014-8-24,67.9,57.2,46.9,38.0,34.2,29.0,63,45,26,29.75,29.68,10,1,16,0.00
2014-8-25,71.9,54.6,42.7,45.0,38.2,32.0,77,57,26,29.82,29.69,11,1,20,0.02
2014-8-26,66.5,52.1,42.0,49.0,43.5,39.0,91,75,38,29.91,29.81,16,1,22,0.10
2014-8-27,65.0,51.8,44.9,47.0,40.7,33.0,93,70,32,29.89,29.80,7,1,17,0.15
2014-8-28,60.1,50.2,41.9,41.0,36.6,34.0,79,61,42,29.90,29.81,12,1,19,0.00
2014-8-29,67.7,52.4,43.3,42.0,36.1,31.0,84,58,27,29.89,29.78,7,1,15,0.05
2014-8-30,71.1,52.4,37.5,43.0,37.6,35.0,92,62,28,29.89,29.71,10,1,19,0.00
2014-8-31,69.6,58.6,50.6,36.0,33.5,30.0,55,40,25,29.70,29.52,17,2,25,0.00
2014-9-1,71.1,58.0,44.3,33.0,29.2,26.0,59,36,20,29.74,29.56,9,1,18,0.00
2014-9-2,75.9,60.0,40.6,30.0,28.3,25.0,65,34,16,29.78,29.62,10,1,17,0.00
2014-9-3,76.9,65.3,53.9,34.0,29.2,22.0,38,27,13,29.62,29.42,7,1,17,0.00
2014-9-4,72.6,58.9,46.9,46.0,32.9,24.0,92,43,20,29.71,29.46,9,0,13,0.10
2014-9-5,64.1,50.1,43.6,48.0,43.3,38.0,94,80,40,30.02,29.70,10,0,13,0.16
2014-9-6,66.1,52.9,46.1,46.0,43.4,33.0,92,73,34,30.02,29.86,7,1,18,0.01
2014-9-7,67.9,52.9,41.1,48.0,41.9,37.0,94,70,32,29.93,29.79,8,1,15,0.01
2014-9-8,64.8,53.9,46.2,46.0,42.0,35.0,86,66,42,29.81,29.67,6,0,13,0.03
2014-9-9,62.8,53.4,47.7,49.0,43.1,37.0,90,69,49,29.66,29.52,7,1,14,0.06
2014-9-10,64.6,52.3,43.7,37.0,31.9,25.0,74,49,24,29.81,29.59,7,1,15,0.00
2014-9-11,67.9,53.8,41.6,39.0,28.8,22.0,86,42,19,29.82,29.69,9,1,18,0.00
2014-9-12,64.3,45.5,31.8,39.0,29.8,18.0,90,62,17,29.99,29.81,8,1,17,0.00
2014-9-13,70.8,50.6,30.4,31.0,24.8,18.0,91,45,14,30.02,29.90,7,1,14,0.00
2014-9-14,71.2,55.9,39.7,33.0,28.8,26.0,59,37,20,29.91,29.75,7,1,18,0.00
2014-9-15,70.6,54.0,41.9,41.0,33.4,27.0,77,49,21,29.94,29.82,8,1,17,0.00
2014-9-16,70.9,55.0,38.0,41.0,34.6,29.0,86,52,22,29.97,29.83,6,0,10,0.00
2014-9-17,71.8,56.6,42.9,38.0,32.5,27.0,67,44,19,29.83,29.66,7,0,17,0.00
2014-9-18,74.2,57.2,41.0,38.0,32.7,28.0,76,44,19,29.75,29.62,10,1,17,0.00
2014-9-19,74.6,58.0,42.5,39.0,31.7,28.0,59,40,19,29.72,29.60,5,0,16,0.00
2014-9-20,73.5,56.4,44.0,46.0,39.3,35.0,93,57,26,29.96,29.71,8,1,23,0.37
2014-9-21,64.5,52.1,46.6,50.0,47.1,43.0,94,84,48,29.98,29.89,9,1,15,0.12
2014-9-22,63.9,53.1,47.5,48.0,43.4,38.0,94,72,42,29.95,29.79,5,1,19,0.17
2014-9-23,66.6,54.5,47.0,40.0,37.1,33.0,69,54,30,29.91,29.79,7,1,16,0.00
2014-9-24,69.4,54.6,40.7,40.0,35.9,29.0,83,54,23,30.00,29.89,8,1,10,0.00
2014-9-25,73.7,56.4,40.3,43.0,36.7,33.0,81,52,23,29.95,29.77,10,1,18,0.00
2014-9-26,74.5,57.6,41.4,43.0,36.8,33.0,81,50,22,29.82,29.64,6,0,14,0.00
2014-9-27,72.4,55.3,43.5,41.0,35.9,30.0,75,51,25,29.69,29.52,9,1,14,0.01
2014-9-28,60.7,49.4,43.2,47.0,39.1,29.0,90,69,46,29.72,29.62,10,1,17,0.14
2014-9-29,55.4,42.9,35.0,44.0,37.1,27.0,92,80,56,29.73,29.54,6,1,17,0.25
2014-9-30,52.0,41.4,34.2,30.0,27.2,24.0,75,58,39,29.76,29.69,10,1,20,0.00
2014-10-1,53.7,41.8,33.7,34.0,28.4,26.0,82,61,41,29.80,29.63,6,1,19,0.00
2014-10-2,52.5,39.6,27.7,28.0,17.0,10.0,79,44,20,30.06,29.80,13,1,18,0.01
2014-10-3,59.0,45.7,35.9,21.0,15.0,-1.0,56,32,10,30.08,30.01,14,1,20,0.00
2014-10-4,62.8,48.7,34.6,25.0,19.7,14.0,58,34,15,30.02,29.81,13,2,18,0.00
2014-10-5,61.2,48.4,39.4,27.0,22.4,13.0,53,38,15,29.85,29.74,9,1,23,0.00
2014-10-6,65.7,51.6,40.3,26.0,22.0,16.0,56,34,15,29.83,29.72,12,2,23,0.00
2014-10-7,67.1,52.9,39.9,27.0,22.7,19.0,49,32,18,29.81,29.72,5,0,11,0.00
2014-10-8,66.7,49.7,38.1,31.0,24.8,12.0,60,42,12,29.82,29.70,5,0,14,0.00
2014-10-9,46.3,39.8,33.1,38.0,33.6,30.0,93,80,54,30.01,29.71,5,0,7,0.38
2014-10-10,44.5,38.0,33.1,39.0,35.1,31.0,94,89,76,30.14,30.01,1,0,6,0.22
2014-10-11,55.2,43.3,30.5,36.0,31.6,27.0,94,67,43,30.06,29.71,7,0,12,0.02
2014-10-12,43.1,36.1,28.9,33.0,26.7,21.0,91,70,52,29.95,29.46,8,1,15,0.17
2014-10-13,45.7,34.1,24.2,22.0,19.5,16.0,77,58,34,30.18,29.96,8,1,14,0.00
2014-10-14,64.8,45.0,26.9,29.0,21.6,11.0,72,44,12,30.20,30.00,7,0,10,0.00
2014-10-15,64.2,49.9,33.8,29.0,22.5,16.0,61,36,21,30.00,29.72,6,1,14,0.00
2014-10-16,65.3,52.0,40.4,27.0,18.9,14.0,45,28,16,29.76,29.67,8,0,17,0.00
2014-10-17,63.2,46.0,34.4,28.0,23.1,16.0,62,43,21,29.92,29.74,5,0,11,0.00
2014-10-18,61.0,45.6,30.6,33.0,27.9,25.0,78,53,26,29.95,29.83,6,0,11,0.00
2014-10-19,59.0,47.4,39.5,36.0,31.4,28.0,71,56,34,29.94,29.81,5,0,9,0.00
2014-10-20,61.1,45.3,33.5,36.0,31.4,29.0,83,61,32,29.99,29.87,7,0,18,0.00
2014-10-21,57.7,44.9,32.8,37.0,32.8,28.0,85,65,41,29.91,29.73,6,0,12,0.00
2014-10-22,53.4,44.4,36.9,35.0,30.8,27.0,78,60,37,29.97,29.76,9,0,15,0.00
2014-10-23,60.9,47.5,37.1,30.0,26.8,22.0,69,46,28,30.03,29.93,5,1,10,0.00
2014-10-24,66.8,52.2,37.7,25.0,19.0,15.0,52,29,14,30.02,29.91,9,0,13,0.00
2014-10-25,68.2,50.0,32.5,26.0,17.5,10.0,54,31,11,30.05,29.79,6,1,15,0.00
2014-10-26,60.2,51.2,45.1,29.0,22.4,13.0,52,34,16,29.78,29.46,9,1,26,0.00
2014-10-27,48.8,40.1,24.9,29.0,19.1,9.0,67,45,24,29.86,29.44,8,1,19,0.00
2014-10-28,53.9,35.8,18.3,16.0,10.4,2.0,81,42,15,30.17,29.87,5,0,13,0.00
2014-10-29,57.7,43.2,31.0,13.0,10.3,5.0,39,27,14,30.16,29.98,6,0,13,0.00
2014-10-30,59.6,44.2,31.3,22.0,18.0,14.0,62,37,20,30.15,30.00,8,1,15,0.00
2014-10-31,56.9,39.6,23.9,24.0,20.4,18.0,78,50,26,30.15,30.00,5,1,12,0.00
2014-11-1,57.0,43.6,35.1,34.0,29.4,24.0,79,59,35,29.99,29.66,14,2,26,0.00
2014-11-2,42.9,38.1,31.8,36.0,30.0,26.0,91,73,57,29.67,29.59,7,1,16,0.10
2014-11-3,42.0,31.6,22.8,27.0,18.8,15.0,85,61,37,30.14,29.64,7,1,17,0.01
2014-11-4,48.1,32.1,17.0,18.0,10.5,-2.0,85,48,13,30.32,30.14,4,0,7,0.00
2014-11-5,55.4,41.1,29.9,22.0,11.7,-2.0,54,32,19,30.26,30.13,8,1,18,0.00
2014-11-6,61.5,44.3,27.9,20.0,15.4,10.0,48,33,18,30.31,30.03,5,0,11,0.00
2014-11-7,57.1,44.1,32.4,24.0,15.8,9.0,67,34,21,30.07,29.81,10,1,17,0.00
2014-11-8,56.7,39.1,21.0,29.0,10.7,-8.0,91,45,10,30.21,30.05,8,0,16,0.00
2014-11-9,58.1,45.7,37.8,15.0,9.6,-3.0,32,23,15,30.05,29.41,9,1,15,0.00
2014-11-10,51.5,37.0,17.6,27.0,16.5,11.0,82,48,21,29.60,29.21,15,2,28,0.00
2014-11-11,41.7,23.4,5.2,13.0,6.9,1.0,86,56,23,29.99,29.61,8,1,20,0.01
2014-11-12,10.2,3.7,-6.9,3.0,-2.4,-12.0,79,76,68,30.52,29.98,4,0,7,0.00
2014-11-13,33.7,14.6,-11.3,25.0,8.5,-17.0,86,77,63,30.62,30.18,14,0,14,0.14
2014-11-14,38.2,29.9,24.3,24.0,19.7,16.0,85,68,41,30.17,29.71,13,1,17,0.00
2014-11-15,33.8,25.7,11.2,22.0,16.8,7.0,84,70,53,29.83,29.69,7,1,28,0.00
2014-11-16,21.6,12.4,2.8,8.0,2.3,-4.0,84,65,45,30.39,29.82,9,0,16,0.06
2014-11-17,29.3,17.1,6.9,0.0,-4.5,-8.0,55,39,24,30.41,30.30,6,1,15,0.01
2014-11-18,35.2,24.7,11.6,6.0,-0.0,-5.0,50,35,24,30.35,30.17,12,1,26,0.00
2014-11-19,42.9,31.9,22.8,7.0,1.2,-6.0,37,27,17,30.16,29.95,6,0,16,0.00
2014-11-20,43.5,32.7,26.1,11.0,3.2,-6.0,48,29,19,29.97,29.88,1,0,7,0.00
2014-11-21,42.3,31.1,23.7,17.0,12.7,10.0,62,48,31,29.98,29.87,6,0,10,0.00
2014-11-22,43.7,32.3,22.9,25.0,14.5,9.0,84,50,27,29.97,29.52,6,1,19,0.00
2014-11-23,28.7,21.3,11.1,23.0,10.9,1.0,85,66,36,29.98,29.50,9,1,21,0.01
2014-11-24,23.8,15.0,9.1,9.0,1.7,-4.0,81,57,38,30.44,29.98,6,1,22,0.01
2014-11-25,33.5,24.6,11.2,20.0,10.9,-2.0,79,57,45,30.42,30.11,22,4,33,0.00
2014-11-26,43.8,36.1,28.1,22.0,19.3,14.0,75,52,38,30.22,30.09,8,2,29,0.00
2014-11-27,51.7,40.1,31.1,16.0,13.4,10.0,49,34,23,30.23,30.01,21,1,21,0.00
2014-11-28,53.6,44.0,38.1,11.0,6.1,3.0,32,21,14,30.01,29.60,9,2,23,0.00
2014-11-29,47.3,40.5,34.2,5.0,2.6,-1.0,28,21,14,29.60,29.49,13,2,25,0.00
2014-11-30,44.1,36.3,28.5,9.0,5.9,2.0,42,28,18,29.92,29.60,10,1,23,0.00
2014-12-1,39.4,31.2,18.8,21.0,14.4,8.0,82,51,38,30.13,29.93,8,1,16,0.00
2014-12-2,48.8,35.8,26.8,11.0,4.2,-2.0,47,29,14,30.12,29.91,4,0,10,0.00
2014-12-3,45.6,36.8,30.1,25.0,14.8,-2.0,55,42,23,29.96,29.79,15,1,22,0.00
2014-12-4,41.7,36.4,30.6,23.0,21.2,18.0,68,55,45,29.90,29.77,5,0,16,0.00
2014-12-5,41.5,33.5,26.0,20.0,17.4,14.0,72,53,34,30.29,29.88,5,0,13,0.00
2014-12-6,40.0,29.9,20.3,24.0,19.4,14.0,79,66,48,30.37,30.27,4,0,11,0.00
2014-12-7,45.6,33.7,26.0,19.0,14.2,8.0,67,47,23,30.28,30.18,8,1,12,0.00
2014-12-8,44.7,30.4,19.0,13.0,8.1,1.0,65,42,21,30.37,30.26,2,0,6,0.00
2014-12-9,50.5,33.4,18.1,6.0,-1.0,-6.0,44,26,11,30.36,30.14,1,0,7,0.00
2014-12-10,50.9,35.6,23.2,13.0,3.5,-5.0,42,27,15,30.15,29.98,0,0,6,0.00
2014-12-11,50.1,35.1,21.5,14.0,9.6,3.0,56,37,16,30.08,30.00,6,0,9,0.00
2014-12-12,53.0,36.2,20.6,15.0,9.4,4.0,52,35,16,30.14,29.94,7,0,16,0.00
2014-12-13,45.3,36.1,29.1,26.0,19.6,15.0,81,53,35,29.93,29.54,8,0,13,0.00
2014-12-14,32.8,25.7,18.0,27.0,19.5,10.0,90,78,61,29.85,29.51,6,0,11,0.15
2014-12-15,28.8,21.0,13.0,11.0,6.1,0.0,69,54,39,30.26,29.86,13,1,21,0.05
2014-12-16,34.4,21.7,8.1,17.0,8.1,-1.0,73,56,44,30.31,30.12,0,0,7,0.02
2014-12-17,28.6,21.7,14.8,21.0,15.5,9.0,89,77,64,30.12,29.93,2,0,4,0.00
2014-12-18,33.0,21.5,7.2,21.0,14.1,3.0,90,75,46,30.19,30.03,3,0,10,0.02
2014-12-19,30.2,21.1,11.4,9.0,7.2,5.0,77,57,38,30.21,30.13,3,0,11,0.02
2014-12-20,37.9,26.1,12.7,17.0,12.9,4.0,72,59,40,30.20,29.93,5,0,12,0.00
2014-12-21,33.0,27.5,21.1,25.0,19.1,12.0,90,72,56,29.93,29.62,13,1,20,0.00
2014-12-22,27.8,21.4,9.1,24.0,13.9,4.0,88,73,55,29.89,29.59,11,2,22,0.02
2014-12-23,19.7,11.1,4.0,2.0,-1.9,-7.0,74,57,40,30.40,29.89,9,2,16,0.00
2014-12-24,39.3,22.5,3.5,18.0,5.8,-7.0,62,50,37,30.36,29.67,6,0,13,0.02
2014-12-25,33.6,24.1,13.3,15.0,11.5,7.0,82,60,45,29.65,29.36,14,1,16,0.00
2014-12-26,13.1,6.7,-2.8,9.0,1.8,-8.0,83,80,73,30.28,29.61,6,0,9,0.00
2014-12-27,17.2,4.1,-13.9,7.0,-5.4,-20.0,83,66,43,30.60,30.29,3,0,7,0.04
2014-12-28,24.6,16.1,9.6,7.0,1.1,-9.0,71,52,37,30.46,30.03,5,0,14,0.00
2014-12-29,12.9,6.7,-3.5,6.0,1.1,-9.0,83,78,70,30.44,30.01,3,0,11,0.00
2014-12-30,1.9,-5.4,-12.5,-8.0,-12.4,-19.0,78,72,59,30.80,30.45,3,0,4,0.00
2014-12-31,12.7,1.3,-12.9,1.0,-6.2,-19.0,82,72,54,30.86,30.55,0,0,2,0.00
2015-1-1,18.0,7.5,-1.4,13.0,3.0,-6.0,84,81,78,30.53,30.22,1,0,6,0.00
2015-1-2,18.3,8.0,-2.1,11.0,2.5,-7.0,86,78,64,30.39,30.18,1,0,5,0.00